[[{"header":{"parameterUnit":"m.s-1","parameterCategory":1,"la1":30.2991,"la2":30.254,"lo1":-89.0895,"lo2":-89.0444,"dy":0.0017,"dx":0.0017,"nx":28,"ny":28,"refTime":"2023-09-23T03:00:00:Z","depth":0,"parameterNumber":2,"parameterNumberName":"U-component_of_WINDS"},"data":[0,0,0,0,0,0,0,0,0,0,0,0,0,0,0,0,0,0,0,0,0,0,0,0,0,0,0,0,0,0,0,0,0,0,0,0,0,0,0,0,0,0,0,0,0,0,0,0,0,0,0,0,0,0,0,0,0,0,2.2981,2.2982,0,2.3038,2.3039,2.304,2.2995,2.2993,2.2991,2.2989,2.3046,2.305,2.3053,0,0,0,0,0,0,0,0,0,0,0,0,0,2.2829,2.2832,2.2981,2.2982,2.2983,2.3038,2.3039,2.304,2.2995,2.2993,2.299,2.2988,2.3045,2.3049,2.3053,0,0,0,0,0,0,0,0,0,0,0,0,0,2.2892,2.2833,2.2981,2.2967,2.2966,2.3038,2.3039,2.304,2.2995,2.2993,2.299,2.2987,2.3044,2.3049,2.3054,2.3142,0,0,2.3069,2.3071,0,0,0,0,0,0,0,0,2.2888,2.2897,2.2968,2.2968,2.2967,2.3006,2.3006,2.3074,2.2996,2.2984,2.2989,2.2986,2.3035,2.3041,2.3058,2.3145,2.3147,2.307,2.3073,2.3075,2.3076,0,0,0,0,0,0,0,2.2884,2.2895,2.3004,2.2969,2.2969,2.2956,2.2962,2.3019,2.3025,2.2985,2.2982,2.2989,2.3035,2.3053,2.3059,2.3148,2.3069,2.3074,2.3077,2.3079,2.3306,2.3309,0,0,0,0,0,0,2.2881,2.2891,2.3002,2.3005,2.292,2.2962,2.2968,2.2997,2.3025,2.3026,2.2992,2.2987,2.3046,2.3053,2.3061,2.3162,2.3075,2.3079,2.3082,2.3303,2.3306,2.331,0,0,0,0,0,0,2.2878,2.2892,2.3,2.2947,2.296,2.2967,2.3,2.2999,2.3018,2.303,2.303,2.301,2.3044,2.3054,2.3121,2.3164,2.3082,2.3086,2.3299,2.3304,2.3308,2.3369,0,0,0,0,0,0,2.2874,2.2891,2.2926,2.2949,2.2963,2.306,2.3003,2.3003,2.3027,2.3021,2.3047,2.3048,2.3043,2.3114,2.3126,2.3169,2.309,2.3295,2.3301,2.3307,2.3363,2.3375,2.3385,0,0,0,0,0,2.2869,2.2941,2.2928,2.2941,2.3007,2.3063,2.3071,2.3064,2.3031,2.3064,2.3071,2.3047,2.3158,2.3121,2.3135,2.318,2.3293,2.33,2.3306,2.3358,2.3373,2.3385,0,0,0,0,0,0,2.2924,2.2944,2.2929,2.3012,2.3036,2.3055,2.3098,2.308,2.3114,2.3107,2.3096,2.3102,2.3172,2.3183,2.3142,2.3265,2.322,2.323,2.3255,2.3269,2.3279,2.3274,2.3094,0,0,0,0,0,2.2946,2.299,2.3005,2.3076,2.3089,2.3092,2.3116,2.3108,2.3132,2.3142,2.3154,2.3178,2.3218,2.3244,2.3282,2.3365,2.3368,2.3403,2.3414,2.3423,2.343,2.3471,2.3485,2.3332,2.3332,2.3332,0,0,2.2991,2.3007,2.3036,2.3088,2.3106,2.315,2.3101,2.3151,2.3183,2.315,2.3213,2.3223,2.3249,2.3323,2.3357,2.3335,2.3473,2.3431,2.3438,2.3441,2.348,2.3494,2.3507,2.3337,2.3336,2.3335,0,0,2.3095,2.3114,2.3173,2.3191,2.3218,2.3219,2.3233,2.3255,2.3259,2.3323,2.3298,2.3336,2.3405,2.3423,2.3442,2.355,2.3527,2.3562,2.3619,2.3659,2.3671,2.3681,2.3716,2.3729,2.3571,2.3571,2.3571,0,2.3148,2.3215,2.3206,2.3257,2.3278,2.3249,2.3307,2.3326,2.3364,2.3379,2.3354,2.3437,2.3453,2.353,2.3556,2.3573,2.3586,2.3558,2.367,2.3681,2.369,2.3723,2.3737,2.3575,2.3574,2.3574,2.3573,0,2.3276,2.3323,2.3367,2.3403,2.343,2.3485,2.3482,2.351,2.3499,2.3501,2.3564,2.3582,2.3621,2.3639,2.3629,2.3713,2.3698,2.3672,2.3626,2.3709,2.3739,2.3752,2.358,2.3579,2.3578,2.3577,0,0,2.3417,2.3445,2.3461,2.3475,2.3502,2.3537,2.3589,2.3626,2.3649,2.3676,2.3717,2.3775,2.375,2.3771,2.3763,2.3798,2.3877,2.3767,2.3767,2.3784,2.3966,2.3983,2.3998,2.3864,2.3866,2.3868,2.3962,0,2.352,2.361,2.3602,2.3686,2.3727,2.3699,2.3743,2.3763,2.3767,2.3801,2.3804,2.3844,2.381,2.3822,2.3856,2.3861,2.3913,2.3854,2.3899,2.3901,2.389,2.4015,2.4034,2.4122,2.3975,2.3977,2.3978,0,2.3652,2.3682,2.377,2.3786,2.3803,2.3843,2.3874,2.3908,2.3929,2.3929,2.3951,2.3936,2.3985,2.394,2.4006,2.3966,2.3984,2.3989,2.3992,2.3994,2.3943,2.4016,2.415,2.4162,2.3998,2.3996,2.3995,0,2.3741,2.3804,2.3863,2.3877,2.3898,2.3926,2.3937,2.3955,2.3977,2.4004,2.4017,2.4051,2.4068,2.4093,2.4087,2.4055,2.4153,2.4109,2.4152,2.4152,2.4172,2.4171,2.4308,2.4189,2.4189,2.4189,2.4189,0,2.3855,2.391,2.3903,2.3939,2.3998,2.3987,2.4046,2.4052,2.4068,2.4104,2.4083,2.4116,2.4107,2.414,2.4135,2.4189,2.4198,2.4197,2.4195,2.4197,2.4197,2.4207,2.4199,2.4193,2.4192,2.4191,2.419,0,2.3965,2.3963,2.4025,2.4039,2.4044,2.4086,2.4098,2.4131,2.4132,2.4177,2.4187,2.4189,2.4226,2.4222,2.4265,2.4261,2.4327,2.4319,2.4319,2.4316,2.4359,2.4353,2.4505,2.4522,2.4396,2.4397,2.4398,0,2.4036,2.4076,2.4094,2.4116,2.4128,2.4165,2.4185,2.4176,2.4199,2.4223,2.4253,2.4288,2.4315,2.4376,2.438,2.4411,2.4402,2.4453,2.4406,2.4406,2.4398,2.4394,2.4397,2.4461,2.4462,2.4464,2.4464,0,2.4162,2.4158,2.4189,2.4219,2.4244,2.4268,2.4289,2.4309,2.4301,2.4327,2.4364,2.4385,2.4427,2.4461,2.449,2.4499,2.448,2.4479,2.449,2.4492,2.4489,2.4487,2.434,2.4475,2.4474,2.4473,2.4473,2.4472,2.4252,2.4284,2.4301,2.4335,2.435,2.4369,2.44,2.4404,2.4435,2.4467,2.446,2.4501,2.4517,2.4554,2.4566,2.4597,2.4578,2.4596,2.4599,2.4603,2.4606,2.4486,2.4603,2.4603,2.4602,2.4602,2.4602,0,2.4373,2.4381,2.4413,2.4442,2.4468,2.4448,2.4469,2.4492,2.4529,2.4546,2.4572,2.4613,2.4645,2.4651,2.4681,2.4705,2.4696,2.4712,2.4709,2.4711,2.4623,2.4608,2.4719,2.4719,2.4718,2.4718,2.4718,2.4718,2.4439,2.4492,2.4489,2.4548,2.4557,2.4596,2.4609,2.4626,2.4639,2.4686,2.4712,2.4715,2.4727,2.4757,2.4785,2.4785,2.4796,2.4815,2.4812,2.4729,2.4718,2.4706,2.4692,2.4818,2.4819,2.4897,2.4898,2.4898]},{"header":{"parameterUnit":"m.s-1","parameterCategory":1,"la1":30.2991,"la2":30.254,"lo1":-89.0895,"lo2":-89.0444,"dy":0.0017,"dx":0.0017,"nx":28,"ny":28,"refTime":"2023-09-23T03:00:00:Z","depth":0,"parameterNumber":3,"parameterNumberName":"V-component_of_WINDS"},"data":[0,0,0,0,0,0,0,0,0,0,0,0,0,0,0,0,0,0,0,0,0,0,0,0,0,0,0,0,0,0,0,0,0,0,0,0,0,0,0,0,0,0,0,0,0,0,0,0,0,0,0,0,0,0,0,0,0,0,0.7931,0.7932,0,0.8,0.8001,0.8002,0.8012,0.8012,0.8011,0.8011,0.8079,0.8082,0.8084,0,0,0,0,0,0,0,0,0,0,0,0,0,0.7806,0.7808,0.7931,0.7932,0.7933,0.8,0.8001,0.8002,0.8013,0.8012,0.8011,0.801,0.8079,0.8081,0.8084,0,0,0,0,0,0,0,0,0,0,0,0,0,0.7866,0.7809,0.7931,0.7946,0.7948,0.8,0.8001,0.8002,0.8013,0.8012,0.8011,0.801,0.8078,0.8081,0.8085,0.8125,0,0,0.8096,0.8097,0,0,0,0,0,0,0,0,0.7863,0.7871,0.7943,0.7945,0.7948,0.7997,0.7982,0.8043,0.8013,0.7988,0.8011,0.801,0.8053,0.8058,0.8073,0.8128,0.8131,0.8096,0.8098,0.81,0.8101,0,0,0,0,0,0,0,0.7858,0.7868,0.7958,0.7944,0.7947,0.7949,0.7956,0.7994,0.8025,0.799,0.7991,0.7999,0.8054,0.807,0.8075,0.8132,0.8096,0.8099,0.8101,0.8103,0.8222,0.8223,0,0,0,0,0,0,0.7852,0.7864,0.7956,0.796,0.7902,0.7952,0.796,0.7982,0.8024,0.803,0.8,0.8,0.8064,0.807,0.8077,0.8126,0.81,0.8103,0.8105,0.8221,0.8222,0.8223,0,0,0,0,0,0,0.7849,0.786,0.7953,0.7913,0.7925,0.7955,0.7979,0.7984,0.8,0.8032,0.8037,0.8011,0.8063,0.8072,0.8113,0.8129,0.8105,0.8108,0.822,0.8221,0.8223,0.8225,0,0,0,0,0,0,0.7845,0.7859,0.7876,0.7913,0.7927,0.7989,0.798,0.7986,0.8006,0.8006,0.8043,0.8048,0.8063,0.8107,0.8116,0.8133,0.8111,0.8218,0.822,0.8222,0.8224,0.8226,0.8229,0,0,0,0,0,0.7841,0.7874,0.7876,0.7887,0.7948,0.799,0.7998,0.8015,0.8007,0.8024,0.8044,0.8047,0.8125,0.8111,0.8122,0.814,0.8217,0.822,0.8222,0.8222,0.8226,0.8229,0,0,0,0,0,0,0.7837,0.7879,0.7882,0.7928,0.7955,0.7992,0.8013,0.8018,0.8048,0.8046,0.8066,0.8074,0.8113,0.813,0.8114,0.818,0.8171,0.8175,0.8167,0.8171,0.8173,0.8169,0.8114,0,0,0,0,0,0.7842,0.7873,0.7907,0.7944,0.7958,0.7983,0.8002,0.8012,0.8041,0.8052,0.8076,0.8103,0.8133,0.8153,0.8183,0.8226,0.8233,0.8243,0.8246,0.8247,0.8251,0.8273,0.8278,0.823,0.823,0.823,0,0,0.7852,0.7878,0.7897,0.7944,0.7967,0.7997,0.7993,0.8026,0.8048,0.8057,0.8097,0.8115,0.8146,0.8187,0.8207,0.8203,0.8266,0.825,0.8252,0.8254,0.8276,0.8281,0.8285,0.8232,0.8232,0.8232,0,0,0.7885,0.7909,0.7942,0.7964,0.7997,0.8013,0.8021,0.8056,0.8068,0.8108,0.8115,0.8142,0.8194,0.8216,0.8234,0.8272,0.8276,0.8281,0.8295,0.8316,0.832,0.8324,0.8336,0.8341,0.8285,0.8285,0.8285,0,0.7893,0.794,0.7958,0.799,0.801,0.8019,0.8052,0.8072,0.8114,0.8127,0.8122,0.8186,0.8208,0.8254,0.8263,0.8278,0.8286,0.8278,0.8318,0.8322,0.8325,0.8338,0.8343,0.8285,0.8285,0.8285,0.8285,0,0.7948,0.798,0.8002,0.8042,0.8064,0.8097,0.8118,0.8138,0.8146,0.8162,0.8201,0.8227,0.8262,0.8273,0.8282,0.832,0.8316,0.8315,0.8306,0.833,0.8342,0.8347,0.8286,0.8286,0.8286,0.8285,0,0,0.7983,0.803,0.8038,0.8055,0.8092,0.8117,0.8148,0.8182,0.8199,0.8226,0.8253,0.8296,0.8294,0.8314,0.8324,0.8343,0.837,0.8339,0.834,0.8343,0.8413,0.8414,0.8419,0.8373,0.8374,0.8374,0.841,0,0.802,0.8078,0.8093,0.8142,0.8171,0.8179,0.8206,0.8231,0.8246,0.8272,0.8288,0.8318,0.8314,0.8326,0.8345,0.8363,0.8385,0.8361,0.8396,0.8397,0.8389,0.8426,0.8427,0.846,0.8415,0.8415,0.8416,0,0.8072,0.81,0.8152,0.8183,0.8196,0.822,0.8251,0.8277,0.8304,0.8314,0.8335,0.8343,0.8375,0.8363,0.8406,0.839,0.8405,0.8415,0.8417,0.8421,0.8408,0.843,0.847,0.8475,0.8424,0.8423,0.8423,0,0.8091,0.8142,0.8179,0.8194,0.8231,0.8248,0.8264,0.8291,0.8309,0.8336,0.8348,0.8378,0.8395,0.8417,0.8432,0.8423,0.8473,0.8464,0.8481,0.8481,0.8492,0.8491,0.8535,0.8502,0.8502,0.8502,0.8502,0,0.8132,0.8163,0.8188,0.8211,0.8245,0.8262,0.8295,0.8311,0.8334,0.8359,0.8367,0.839,0.8409,0.8434,0.8446,0.8479,0.8486,0.8494,0.8497,0.8493,0.8492,0.8504,0.8502,0.8503,0.8503,0.8503,0.8502,0,0.816,0.8178,0.8219,0.825,0.8259,0.8283,0.8309,0.8331,0.8345,0.8377,0.8385,0.8408,0.8437,0.8455,0.8492,0.85,0.8536,0.8538,0.8528,0.8529,0.8545,0.8543,0.8598,0.8605,0.8567,0.8568,0.8568,0,0.8185,0.8208,0.8242,0.8259,0.8276,0.8304,0.8323,0.8339,0.8358,0.8389,0.8407,0.8437,0.8462,0.8509,0.8528,0.8556,0.8559,0.8576,0.8563,0.8558,0.8558,0.8557,0.8559,0.8578,0.8579,0.8579,0.8579,0,0.8226,0.8233,0.8261,0.8291,0.8313,0.8337,0.8361,0.8374,0.8394,0.8415,0.8445,0.8465,0.8503,0.8532,0.8561,0.8577,0.8581,0.8583,0.8588,0.8585,0.8577,0.8581,0.8533,0.8582,0.8581,0.8581,0.8581,0.8581,0.8253,0.8274,0.83,0.833,0.8349,0.8371,0.8392,0.8409,0.8435,0.8467,0.8475,0.8506,0.8531,0.8571,0.8587,0.8611,0.8608,0.8616,0.8618,0.862,0.862,0.8573,0.8616,0.8616,0.8616,0.8616,0.8616,0,0.8294,0.8311,0.8338,0.8371,0.8394,0.8395,0.8421,0.844,0.8468,0.8491,0.8515,0.8549,0.8577,0.8597,0.8626,0.8641,0.8643,0.8648,0.8647,0.865,0.8621,0.8614,0.8645,0.8645,0.8645,0.8645,0.8645,0.8645,0.8319,0.8354,0.8364,0.8408,0.8424,0.8456,0.847,0.849,0.8508,0.8545,0.8569,0.8582,0.8603,0.8633,0.8658,0.8663,0.8673,0.8677,0.8682,0.8655,0.8652,0.8649,0.8642,0.8679,0.8679,0.8709,0.8709,0.8709]}]]